This is the latest recevied weather packets stored in our database for station/object KB3VSP. If no packets are shown the sender has not sent any weather packets the latest 10 day(s).
| Time | Temp. | Humidity | Pressure | Rain* | Wind** | Luminosity | Snow |
|---|---|---|---|---|---|---|---|
| 1777936730 | 19.44° C | 68% | 1007.1 hPa | 0 mm | - | 32 W/m² | - |
| 1777936427 | 19.44° C | 66% | 1007.2 hPa | 0 mm | - | 41 W/m² | - |
| 1777936123 | 20.56° C | 59% | 1007.1 hPa | 0 mm | - | 78 W/m² | - |
| 1777935821 | 20.56° C | 58% | 1007.1 hPa | 0 mm | - | 35 W/m² | - |
| 1777935520 | 20.56° C | 58% | 1007.1 hPa | 0 mm | - | 33 W/m² | - |
| 1777935215 | 20.56° C | 58% | 1007.2 hPa | 0 mm | - | 16 W/m² | - |
| 1777934913 | 20.56° C | 58% | 1007.2 hPa | 0 mm | - | 29 W/m² | - |
| 1777934610 | 20.56° C | 58% | 1007.3 hPa | 0 mm | - | 37 W/m² | - |
| 1777934307 | 20.56° C | 58% | 1007.6 hPa | 0 mm | - | 62 W/m² | - |
| 1777934002 | 20.56° C | 58% | 1007.1 hPa | 0 mm | - | 61 W/m² | - |
| 1777933699 | 20.56° C | 56% | 1007.4 hPa | 0 mm | - | 35 W/m² | - |
| 1777933396 | 20.56° C | 56% | 1007.4 hPa | 0 mm | - | 9 W/m² | - |
| 1777933094 | 20.56° C | 55% | 1007.4 hPa | 0 mm | - | 14 W/m² | - |
| 1777932790 | 21.11° C | 55% | 1007.4 hPa | 0 mm | - | 21 W/m² | - |
| 1777932488 | 21.11° C | 55% | 1007.3 hPa | 0 mm | - | 29 W/m² | - |
| 1777932184 | 21.11° C | 54% | 1007.1 hPa | 0 mm | - | 41 W/m² | - |
| 1777931882 | 21.11° C | 53% | 1007 hPa | 0 mm | - | 78 W/m² | - |
| 1777931578 | 21.67° C | 52% | 1007.3 hPa | 0 mm | - | 54 W/m² | - |
| 1777931274 | 22.22° C | 51% | 1007.1 hPa | 0 mm | - | 96 W/m² | - |
| 1777930970 | 22.22° C | 51% | 1007.1 hPa | 0 mm | - | 104 W/m² | - |
| 1777930667 | 22.78° C | 51% | 1007 hPa | 0 mm | - | 101 W/m² | - |
| 1777930363 | 21.67° C | 51% | 1007.2 hPa | 0 mm | - | 153 W/m² | - |
| 1777930061 | 21.11° C | 52% | 1007.1 hPa | 0 mm | - | 85 W/m² | - |
| 1777929757 | 21.11° C | 52% | 1007.1 hPa | 0 mm | - | 76 W/m² | - |
| 1777929455 | 21.11° C | 51% | 1007.3 hPa | 0 mm | - | 55 W/m² | - |
* Rain latest hour (hover to see other rain measurements)
** Current wind speed in m/s (hover to see current wind gust speed)